Hourly Weather Gangtok

Today, 24 November, Tuesday

Time Temperature Precipitation Wind Pressure Humidity
00:00 +9°C° 0 mm 1 mps 623 mmHg 77%
01:00 +9°C° 0 mm 1 mps 623 mmHg 77%
02:00 +9°C° 0 mm 1 mps 623 mmHg 77%
03:00 +9°C° 0 mm 1 mps 623 mmHg 77%
04:00 +9°C° 0 mm 1 mps 623 mmHg 76%
05:00 +8°C° 0 mm 1 mps 623 mmHg 76%
06:00 +9°C° 0 mm 1 mps 623 mmHg 72%
07:00 +11°C° 0 mm 1 mps 624 mmHg 68%
08:00 +13°C° 0 mm 1 mps 625 mmHg 65%
09:00 +15°C° 0 mm 1 mps 626 mmHg 61%
10:00 +15°C° 0 mm 1 mps 626 mmHg 60%
11:00 +16°C° 0 mm 2 mps 626 mmHg 58%
12:00 +17°C° 0 mm 3 mps 625 mmHg 55%
13:00 +16°C° 0.1 mm 2 mps 625 mmHg 59%
14:00 +16°C° 0.1 mm 2 mps 624 mmHg 62%
15:00 +15°C° 0.1 mm 1 mps 624 mmHg 65%
16:00 +14°C° 0 mm 1 mps 623 mmHg 70%
17:00 +12°C° 0 mm 1 mps 623 mmHg 75%
18:00 +11°C° 0 mm 1 mps 623 mmHg 81%
19:00 +10°C° 0 mm 1 mps 623 mmHg 77%
20:00 +9°C° 0 mm 2 mps 624 mmHg 73%
21:00 +8°C° 0 mm 2 mps 624 mmHg 69%
22:00 +8°C° 0 mm 2 mps 624 mmHg 67%
23:00 +8°C° 0 mm 2 mps 624 mmHg 65%

Tomorrow, 25 November, Wednesday

Time Temperature Precipitation Wind Pressure Humidity
00:00 +8°C° 0 mm 2 mps 624 mmHg 63%
01:00 +8°C° 0 mm 2 mps 624 mmHg 61%
02:00 +8°C° 0 mm 2 mps 623 mmHg 59%
03:00 +8°C° 0 mm 2 mps 623 mmHg 57%
04:00 +8°C° 0 mm 2 mps 623 mmHg 54%
05:00 +8°C° 0 mm 2 mps 623 mmHg 52%
06:00 +8°C° 0 mm 2 mps 623 mmHg 49%
07:00 +10°C° 0 mm 2 mps 625 mmHg 46%
08:00 +14°C° 0 mm 1 mps 626 mmHg 43%
09:00 +16°C° 0 mm 1 mps 627 mmHg 39%
10:00 +18°C° 0 mm 1 mps 627 mmHg 40%
11:00 +18°C° 0 mm 2 mps 627 mmHg 40%
12:00 +19°C° 0 mm 3 mps 627 mmHg 41%
13:00 +18°C° 0 mm 2 mps 626 mmHg 43%
14:00 +18°C° 0 mm 2 mps 625 mmHg 46%
15:00 +18°C° 0 mm 2 mps 625 mmHg 48%
16:00 +15°C° 0 mm 2 mps 624 mmHg 57%
17:00 +13°C° 0 mm 2 mps 624 mmHg 65%
18:00 +11°C° 0 mm 1 mps 623 mmHg 74%
19:00 +10°C° 0 mm 2 mps 624 mmHg 69%
20:00 +9°C° 0 mm 2 mps 624 mmHg 65%
21:00 +9°C° 0 mm 2 mps 625 mmHg 60%
22:00 +9°C° 0 mm 2 mps 625 mmHg 57%
23:00 +9°C° 0 mm 2 mps 625 mmHg 54%

Day after tomorrow, 26 November, Thursday

Time Temperature Precipitation Wind Pressure Humidity
00:00 +9°C° 0 mm 2 mps 625 mmHg 50%
01:00 +9°C° 0 mm 2 mps 625 mmHg 47%
02:00 +9°C° 0 mm 2 mps 624 mmHg 44%
03:00 +9°C° 0 mm 2 mps 624 mmHg 40%
04:00 +9°C° 0 mm 2 mps 624 mmHg 39%
05:00 +9°C° 0 mm 2 mps 624 mmHg 39%
06:00 +9°C° 0 mm 2 mps 625 mmHg 38%
07:00 +12°C° 0 mm 1 mps 626 mmHg 38%
08:00 +14°C° 0 mm 1 mps 627 mmHg 37%
09:00 +16°C° 0 mm 1 mps 628 mmHg 37%
10:00 +18°C° 0 mm 1 mps 628 mmHg 37%
11:00 +20°C° 0 mm 1 mps 628 mmHg 37%
12:00 +20°C° 0 mm 2 mps 628 mmHg 37%
13:00 +19°C° 0 mm 2 mps 627 mmHg 40%
14:00 +19°C° 0 mm 2 mps 626 mmHg 44%
15:00 +18°C° 0 mm 2 mps 626 mmHg 47%
16:00 +16°C° 0 mm 2 mps 625 mmHg 55%
17:00 +13°C° 0 mm 1 mps 625 mmHg 63%
18:00 +11°C° 0 mm 1 mps 625 mmHg 70%
19:00 +11°C° 0 mm 1 mps 625 mmHg 63%
20:00 +10°C° 0 mm 2 mps 626 mmHg 55%
21:00 +10°C° 0 mm 2 mps 626 mmHg 48%
22:00 +10°C° 0 mm 2 mps 626 mmHg 43%
23:00 +10°C° 0 mm 2 mps 626 mmHg 38%

27 November, Friday

Time Temperature Precipitation Wind Pressure Humidity
00:00 +10°C° 0 mm 2 mps 626 mmHg 33%
01:00 +10°C° 0 mm 2 mps 626 mmHg 31%
02:00 +10°C° 0 mm 2 mps 626 mmHg 30%
03:00 +10°C° 0 mm 2 mps 625 mmHg 29%
04:00 +10°C° 0 mm 2 mps 626 mmHg 29%
05:00 +12°C° 0 mm 1 mps 626 mmHg 29%
06:00 +12°C° 0 mm 1 mps 626 mmHg 29%
07:00 +13°C° 0 mm 1 mps 627 mmHg 32%
08:00 +14°C° 0 mm 1 mps 627 mmHg 35%
09:00 +15°C° 0 mm 1 mps 628 mmHg 38%
10:00 +16°C° 0 mm 1 mps 628 mmHg 38%
11:00 +17°C° 0 mm 2 mps 628 mmHg 38%
12:00 +18°C° 0 mm 2 mps 628 mmHg 39%
13:00 +18°C° 0 mm 2 mps 627 mmHg 40%
14:00 +18°C° 0 mm 2 mps 626 mmHg 42%
15:00 +18°C° 0 mm 1 mps 626 mmHg 43%
16:00 +15°C° 0 mm 1 mps 625 mmHg 51%
17:00 +13°C° 0 mm 2 mps 625 mmHg 58%
18:00 +10°C° 0 mm 2 mps 624 mmHg 65%
19:00 +10°C° 0 mm 2 mps 625 mmHg 62%
20:00 +9°C° 0 mm 2 mps 625 mmHg 59%
21:00 +9°C° 0 mm 2 mps 625 mmHg 57%
22:00 +9°C° 0 mm 2 mps 625 mmHg 55%
23:00 +9°C° 0 mm 2 mps 625 mmHg 54%

28 November, Saturday

Time Temperature Precipitation Wind Pressure Humidity
00:00 +9°C° 0 mm 2 mps 625 mmHg 52%
01:00 +9°C° 0 mm 2 mps 625 mmHg 49%
02:00 +9°C° 0 mm 2 mps 625 mmHg 47%
03:00 +9°C° 0 mm 2 mps 626 mmHg 44%
04:00 +9°C° 0 mm 3 mps 626 mmHg 40%
05:00 +9°C° 0 mm 3 mps 626 mmHg 37%
06:00 +9°C° 0 mm 3 mps 626 mmHg 33%
07:00 +12°C° 0 mm 2 mps 627 mmHg 31%
08:00 +15°C° 0 mm 2 mps 629 mmHg 30%
09:00 +18°C° 0 mm 1 mps 630 mmHg 28%
10:00 +19°C° 0 mm 1 mps 630 mmHg 28%
11:00 +19°C° 0 mm 2 mps 630 mmHg 28%
12:00 +20°C° 0 mm 2 mps 629 mmHg 28%
13:00 +19°C° 0 mm 2 mps 629 mmHg 31%
14:00 +19°C° 0 mm 2 mps 628 mmHg 34%
15:00 +18°C° 0 mm 2 mps 627 mmHg 38%
16:00 +16°C° 0 mm 2 mps 626 mmHg 43%
17:00 +13°C° 0 mm 2 mps 626 mmHg 49%
18:00 +10°C° 0 mm 2 mps 625 mmHg 55%
19:00 +10°C° 0 mm 2 mps 625 mmHg 48%
20:00 +10°C° 0 mm 2 mps 626 mmHg 40%
21:00 +10°C° 0 mm 2 mps 626 mmHg 33%
22:00 +10°C° 0 mm 2 mps 626 mmHg 31%
23:00 +10°C° 0 mm 2 mps 626 mmHg 30%

29 November, Sunday

Time Temperature Precipitation Wind Pressure Humidity
00:00 +9°C° 0 mm 2 mps 625 mmHg 29%
01:00 +9°C° 0 mm 2 mps 625 mmHg 29%
02:00 +9°C° 0 mm 2 mps 625 mmHg 29%
03:00 +9°C° 0 mm 2 mps 625 mmHg 29%
04:00 +9°C° 0 mm 2 mps 625 mmHg 29%
05:00 +9°C° 0 mm 2 mps 625 mmHg 29%
06:00 +9°C° 0 mm 2 mps 625 mmHg 29%
07:00 +13°C° 0 mm 2 mps 626 mmHg 29%
08:00 +15°C° 0 mm 1 mps 627 mmHg 28%
09:00 +18°C° 0 mm 1 mps 629 mmHg 28%
10:00 +19°C° 0 mm 1 mps 628 mmHg 29%
11:00 +19°C° 0 mm 2 mps 628 mmHg 29%
12:00 +20°C° 0 mm 2 mps 628 mmHg 29%
13:00 +19°C° 0 mm 2 mps 627 mmHg 33%
14:00 +19°C° 0 mm 2 mps 626 mmHg 36%
15:00 +18°C° 0 mm 2 mps 625 mmHg 40%
16:00 +16°C° 0 mm 2 mps 625 mmHg 49%
17:00 +13°C° 0 mm 2 mps 624 mmHg 58%
18:00 +10°C° 0 mm 2 mps 623 mmHg 67%
19:00 +10°C° 0 mm 2 mps 624 mmHg 63%
20:00 +10°C° 0 mm 2 mps 624 mmHg 59%
21:00 +9°C° 0 mm 2 mps 624 mmHg 54%
22:00 +9°C° 0 mm 2 mps 624 mmHg 53%
23:00 +9°C° 0 mm 2 mps 624 mmHg 52%
Show more